| time (UTC) | temp C | wind direction | speed KPH | gust KPH | rain 1hr cm | rain 24hr cm | rain mn cm | humidity % | barometer mb |
| 20260509233527 | 16 | 327 | 0.0 | 1.6 | 0.00 | 0.51 | 0.51 | 75 | 1008.1 |
| 20260509233046 | 16 | 327 | 0.0 | 3.2 | 0.00 | 0.51 | 0.51 | 75 | 1008.2 |
| 20260509232601 | 16 | 327 | 1.6 | 4.8 | 0.00 | 0.51 | 0.51 | 75 | 1008.3 |
| 20260509232035 | 16 | 327 | 1.6 | 4.8 | 0.00 | 0.51 | 0.51 | 75 | 1008.1 |
| 20260509231527 | 16 | 327 | 1.6 | 4.8 | 0.00 | 0.51 | 0.51 | 74 | 1008.3 |
| 20260509231044 | 16 | 327 | 3.2 | 6.4 | 0.00 | 0.51 | 0.51 | 74 | 1008.3 |
| 20260509230602 | 16 | 327 | 3.2 | 8.0 | 0.00 | 0.51 | 0.51 | 74 | 1008.4 |
| 20260509230036 | 16 | 316 | 4.8 | 8.0 | 0.00 | 0.51 | 0.51 | 75 | 1008.4 |
| 20260509225528 | 17 | 317 | 3.2 | 6.4 | 0.00 | 0.51 | 0.51 | 74 | 1008.4 |
| 20260509225046 | 17 | 300 | 1.6 | 8.0 | 0.00 | 0.51 | 0.51 | 74 | 1008.4 |
| 20260509224537 | 17 | 295 | 4.8 | 8.0 | 0.00 | 0.51 | 0.51 | 75 | 1008.4 |
| 20260509224059 | 17 | 296 | 4.8 | 6.4 | 0.00 | 0.51 | 0.51 | 75 | 1008.4 |
| 20260509223531 | 16 | 46 | 1.6 | 3.2 | 0.00 | 0.51 | 0.51 | 74 | 1008.4 |
| 20260509223026 | 16 | 46 | 0.0 | 3.2 | 0.00 | 0.51 | 0.51 | 74 | 1008.3 |
| 20260509222536 | 16 | 46 | 0.0 | 4.8 | 0.00 | 0.51 | 0.51 | 74 | 1008.3 |
| 20260509222036 | 16 | 46 | 3.2 | 4.8 | 0.00 | 0.51 | 0.51 | 76 | 1008.3 |
| 20260509221528 | 16 | 46 | 1.6 | 4.8 | 0.00 | 0.51 | 0.51 | 75 | 1008.3 |
| 20260509221044 | 16 | 44 | 1.6 | 4.8 | 0.00 | 0.51 | 0.51 | 74 | 1008.4 |
| 20260509220538 | 16 | 44 | 1.6 | 4.8 | 0.00 | 0.51 | 0.51 | 75 | 1008.4 |
| 20260509220032 | 16 | 14 | 0.0 | 6.4 | 0.00 | 0.51 | 0.51 | 75 | 1008.5 |
| 20260509215524 | 16 | 14 | 3.2 | 6.4 | 0.00 | 0.51 | 0.51 | 76 | 1008.5 |
| 20260509215037 | 16 | 33 | 1.6 | 8.0 | 0.00 | 0.51 | 0.51 | 76 | 1008.5 |
| 20260509214532 | 16 | 360 | 4.8 | 8.0 | 0.00 | 0.51 | 0.51 | 75 | 1008.5 |
| 20260509214027 | 16 | 348 | 6.4 | 8.0 | 0.00 | 0.51 | 0.51 | 75 | 1008.6 |
| 20260509213543 | 16 | 28 | 1.6 | 9.7 | 0.00 | 0.51 | 0.51 | 76 | 1008.6 |
| 20260509213037 | 16 | 21 | 3.2 | 9.7 | 0.00 | 0.51 | 0.51 | 75 | 1008.6 |
| 20260509212526 | 16 | 24 | 3.2 | 8.0 | 0.00 | 0.51 | 0.51 | 75 | 1008.7 |
| 20260509212044 | 16 | 38 | 3.2 | 9.7 | 0.00 | 0.51 | 0.51 | 76 | 1008.6 |
| 20260509211537 | 16 | 9 | 4.8 | 9.7 | 0.00 | 0.51 | 0.51 | 76 | 1008.7 |
| 20260509211034 | 16 | 16 | 3.2 | 8.0 | 0.00 | 0.51 | 0.51 | 77 | 1008.7 |
| 20260509210528 | 16 | 5 | 3.2 | 8.0 | 0.00 | 0.51 | 0.51 | 76 | 1008.8 |
| 20260509210048 | 16 | 360 | 3.2 | 12.9 | 0.00 | 0.51 | 0.51 | 79 | 1008.9 |
| 20260509205544 | 16 | 46 | 4.8 | 12.9 | 0.00 | 0.51 | 0.51 | 78 | 1009.0 |
| 20260509205039 | 16 | 58 | 3.2 | 8.0 | 0.00 | 0.51 | 0.51 | 79 | 1009.0 |
| 20260509204542 | 16 | 13 | 4.8 | 9.7 | 0.00 | 0.51 | 0.51 | 78 | 1009.0 |
| 20260509204043 | 16 | 26 | 3.2 | 14.5 | 0.00 | 0.51 | 0.51 | 78 | 1009.0 |
| 20260509203536 | 16 | 11 | 6.4 | 14.5 | 0.00 | 0.51 | 0.51 | 78 | 1009.2 |
| 20260509203032 | 16 | 351 | 3.2 | 8.0 | 0.00 | 0.51 | 0.51 | 77 | 1009.2 |
| 20260509202525 | 16 | 34 | 1.6 | 8.0 | 0.00 | 0.51 | 0.51 | 76 | 1009.2 |
| 20260509202044 | 16 | 355 | 3.2 | 9.7 | 0.00 | 0.51 | 0.51 | 75 | 1009.2 |
| 20260509201602 | 16 | 321 | 6.4 | 9.7 | 0.00 | 0.51 | 0.51 | 74 | 1009.1 |
| 20260509201037 | 16 | 338 | 4.8 | 12.9 | 0.00 | 0.51 | 0.51 | 75 | 1009.2 |
| 20260509200527 | 16 | 317 | 4.8 | 12.9 | 0.00 | 0.51 | 0.51 | 73 | 1009.2 |
| 20260509200042 | 16 | 332 | 4.8 | 12.9 | 0.00 | 0.51 | 0.51 | 74 | 1009.3 |
| 20260509195541 | 16 | 317 | 4.8 | 9.7 | 0.00 | 0.51 | 0.51 | 74 | 1009.4 |
| 20260509195042 | 16 | 329 | 6.4 | 14.5 | 0.00 | 0.51 | 0.51 | 73 | 1009.3 |
| 20260509194540 | 16 | 328 | 6.4 | 14.5 | 0.00 | 0.51 | 0.51 | 73 | 1009.4 |
| 20260509194101 | 16 | 290 | 6.4 | 14.5 | 0.00 | 0.51 | 0.51 | 71 | 1009.4 |
| 20260509193540 | 17 | 287 | 9.7 | 14.5 | 0.00 | 0.51 | 0.51 | 71 | 1009.5 |
| 20260509193102 | 17 | 287 | 8.0 | 11.3 | 0.00 | 0.51 | 0.51 | 69 | 1009.2 |
| 20260509192536 | 17 | 200 | 3.2 | 4.8 | 0.00 | 0.51 | 0.51 | 69 | 1009.1 |
| 20260509192029 | 17 | 200 | 3.2 | 4.8 | 0.00 | 0.51 | 0.51 | 69 | 1009.0 |
| 20260509191525 | 17 | 128 | 1.6 | 6.4 | 0.00 | 0.51 | 0.51 | 69 | 1009.0 |
| 20260509191101 | 17 | 128 | 1.6 | 6.4 | 0.00 | 0.51 | 0.51 | 70 | 1009.0 |
| 20260509190557 | 17 | 146 | 3.2 | 6.4 | 0.00 | 0.51 | 0.51 | 73 | 1008.9 |
| 20260509190035 | 17 | 289 | 1.6 | 3.2 | 0.00 | 0.51 | 0.51 | 73 | 1008.9 |
| 20260509185526 | 16 | 289 | 0.0 | 3.2 | 0.00 | 0.51 | 0.51 | 72 | 1009.1 |
| 20260509185047 | 16 | 267 | 0.0 | 8.0 | 0.00 | 0.51 | 0.51 | 75 | 1009.3 |
| 20260509184538 | 16 | 251 | 3.2 | 8.0 | 0.00 | 0.51 | 0.51 | 76 | 1009.1 |
| 20260509184101 | 16 | 192 | 4.8 | 8.0 | 0.00 | 0.51 | 0.51 | 75 | 1009.5 |
| 20260509183530 | 16 | 217 | 1.6 | 9.7 | 0.00 | 0.51 | 0.51 | 78 | 1009.6 |
| 20260509183026 | 15 | 198 | 6.4 | 9.7 | 0.00 | 0.51 | 0.51 | 78 | 1009.7 |
| 20260509182534 | 15 | 309 | 3.2 | 6.4 | 0.00 | 0.51 | 0.51 | 80 | 1009.6 |
| 20260509182031 | 15 | 265 | 3.2 | 6.4 | 0.00 | 0.51 | 0.51 | 80 | 1009.9 |
| 20260509181524 | 15 | 225 | 0.0 | 6.4 | 0.00 | 0.51 | 0.51 | 80 | 1009.8 |
| 20260509181042 | 15 | 195 | 1.6 | 4.8 | 0.00 | 0.51 | 0.51 | 81 | 1010.0 |
| 20260509180540 | 15 | 237 | 0.0 | 11.3 | 0.00 | 0.51 | 0.51 | 81 | 1009.9 |
| 20260509180034 | 14 | 163 | 4.8 | 11.3 | 0.00 | 0.51 | 0.51 | 81 | 1009.9 |
| 20260509175526 | 14 | 194 | 8.0 | 11.3 | 0.00 | 0.51 | 0.51 | 81 | 1010.0 |
| 20260509175042 | 14 | 155 | 6.4 | 12.9 | 0.00 | 0.51 | 0.51 | 82 | 1010.0 |
| 20260509174534 | 15 | 144 | 9.7 | 12.9 | 0.00 | 0.51 | 0.51 | 83 | 1010.0 |
| 20260509174057 | 14 | 188 | 1.6 | 8.0 | 0.00 | 0.51 | 0.51 | 85 | 1010.0 |
| 20260509173529 | 14 | 146 | 6.4 | 8.0 | 0.00 | 0.51 | 0.51 | 86 | 1010.1 |
| 20260509173025 | 14 | 155 | 4.8 | 8.0 | 0.00 | 0.51 | 0.51 | 85 | 1010.1 |
| 20260509172543 | 14 | 138 | 0.0 | 6.4 | 0.00 | 0.51 | 0.51 | 87 | 1010.0 |
| 20260509172105 | 13 | 138 | 1.6 | 8.0 | 0.00 | 0.51 | 0.51 | 88 | 1010.0 |
| 20260509171538 | 13 | 123 | 3.2 | 11.3 | 0.00 | 0.51 | 0.51 | 88 | 1010.2 |
| 20260509171042 | 13 | 140 | 6.4 | 11.3 | 0.00 | 0.51 | 0.51 | 88 | 1010.4 |
| 20260509170541 | 13 | 143 | 6.4 | 11.3 | 0.00 | 0.51 | 0.51 | 88 | 1010.4 |
| 20260509170041 | 13 | 125 | 6.4 | 11.3 | 0.00 | 0.51 | 0.51 | 88 | 1010.5 |
| 20260509165533 | 13 | 144 | 4.8 | 11.3 | 0.00 | 0.51 | 0.51 | 89 | 1010.7 |
| 20260509165054 | 13 | 127 | 6.4 | 11.3 | 0.00 | 0.51 | 0.51 | 88 | 1010.7 |
| 20260509164525 | 13 | 140 | 6.4 | 11.3 | 0.00 | 0.51 | 0.51 | 88 | 1010.9 |
| 20260509164044 | 13 | 142 | 6.4 | 11.3 | 0.00 | 0.51 | 0.51 | 88 | 1010.8 |
| 20260509163536 | 13 | 157 | 6.4 | 11.3 | 0.00 | 0.51 | 0.51 | 88 | 1010.7 |
| 20260509163057 | 13 | 146 | 6.4 | 11.3 | 0.00 | 0.51 | 0.51 | 87 | 1010.7 |
| 20260509162530 | 13 | 168 | 8.0 | 11.3 | 0.00 | 0.51 | 0.51 | 88 | 1010.7 |
| 20260509162047 | 13 | 146 | 6.4 | 9.7 | 0.00 | 0.51 | 0.51 | 88 | 1010.7 |
| 20260509161544 | 13 | 121 | 6.4 | 9.7 | 0.03 | 0.51 | 0.51 | 88 | 1010.5 |
| 20260509161045 | 13 | 130 | 4.8 | 6.4 | 0.03 | 0.51 | 0.51 | 89 | 1010.5 |
| 20260509160544 | 13 | 46 | 1.6 | 4.8 | 0.05 | 0.51 | 0.51 | 90 | 1010.5 |
| 20260509160104 | 12 | 355 | 1.6 | 4.8 | 0.05 | 0.51 | 0.51 | 89 | 1010.4 |
| 20260509155540 | 12 | 318 | 0.0 | 4.8 | 0.08 | 0.51 | 0.51 | 89 | 1010.4 |
| 20260509155041 | 12 | 318 | 1.6 | 4.8 | 0.10 | 0.51 | 0.51 | 90 | 1010.3 |
| 20260509154535 | 12 | 85 | 0.0 | 4.8 | 0.13 | 0.51 | 0.51 | 90 | 1010.2 |
| 20260509154026 | 12 | 85 | 3.2 | 6.4 | 0.15 | 0.51 | 0.51 | 90 | 1010.1 |
| 20260509153524 | 12 | 85 | 3.2 | 6.4 | 0.18 | 0.51 | 0.51 | 91 | 1010.2 |
| 20260509153044 | 12 | 57 | 1.6 | 6.4 | 0.20 | 0.51 | 0.51 | 90 | 1010.1 |
| 20260509152544 | 12 | 5 | 0.0 | 4.8 | 0.23 | 0.51 | 0.51 | 90 | 1010.3 |
| 20260509152043 | 12 | 355 | 3.2 | 4.8 | 0.25 | 0.51 | 0.51 | 90 | 1010.3 |
| 20260509151540 | 12 | 360 | 1.6 | 8.0 | 0.28 | 0.48 | 0.48 | 90 | 1010.4 |
| 20260509151042 | 12 | 5 | 0.0 | 8.0 | 0.30 | 0.48 | 0.48 | 88 | 1010.6 |
| 20260509150537 | 12 | 13 | 3.2 | 4.8 | 0.30 | 0.46 | 0.46 | 88 | 1010.7 |
| 20260509150033 | 12 | 294 | 1.6 | 12.9 | 0.33 | 0.46 | 0.46 | 88 | 1010.9 |
| 20260509145527 | 12 | 294 | 1.6 | 12.9 | 0.30 | 0.43 | 0.43 | 87 | 1011.0 |
| 20260509145104 | 12 | 279 | 4.8 | 11.3 | 0.30 | 0.41 | 0.41 | 86 | 1011.1 |
| 20260509144540 | 12 | 103 | 1.6 | 4.8 | 0.28 | 0.38 | 0.38 | 87 | 1011.2 |
| 20260509144034 | 12 | 156 | 1.6 | 4.8 | 0.28 | 0.36 | 0.36 | 86 | 1011.3 |
| 20260509143527 | 12 | 156 | 3.2 | 4.8 | 0.25 | 0.33 | 0.33 | 87 | 1011.3 |
| 20260509143050 | 12 | 156 | 3.2 | 4.8 | 0.25 | 0.30 | 0.30 | 87 | 1011.3 |
| 20260509142524 | 12 | 156 | 1.6 | 8.0 | 0.23 | 0.28 | 0.28 | 86 | 1011.1 |
| 20260509142103 | 12 | 156 | 3.2 | 8.0 | 0.23 | 0.25 | 0.25 | 86 | 1011.1 |
| 20260509141542 | 12 | 156 | 4.8 | 8.0 | 0.18 | 0.20 | 0.20 | 85 | 1011.0 |
| 20260509141104 | 12 | 161 | 6.4 | 8.0 | 0.15 | 0.18 | 0.18 | 84 | 1011.0 |
| 20260509140538 | 12 | 147 | 4.8 | 6.4 | 0.13 | 0.15 | 0.15 | 84 | 1010.9 |
| 20260509140036 | 12 | 147 | 4.8 | 6.4 | 0.10 | 0.13 | 0.13 | 83 | 1010.8 |
| 20260509135536 | 13 | 140 | 3.2 | 6.4 | 0.10 | 0.13 | 0.13 | 83 | 1010.8 |
| 20260509135031 | 13 | 132 | 3.2 | 8.0 | 0.08 | 0.10 | 0.10 | 82 | 1010.7 |
| 20260509134548 | 13 | 125 | 4.8 | 11.3 | 0.08 | 0.10 | 0.10 | 82 | 1010.7 |
| 20260509134047 | 13 | 144 | 6.4 | 11.3 | 0.05 | 0.08 | 0.08 | 82 | 1010.7 |
| 20260509133544 | 13 | 134 | 6.4 | 11.3 | 0.05 | 0.08 | 0.08 | 82 | 1010.7 |
| 20260509133044 | 13 | 134 | 6.4 | 11.3 | 0.03 | 0.05 | 0.05 | 82 | 1010.7 |
| 20260509132544 | 13 | 139 | 6.4 | 12.9 | 0.03 | 0.05 | 0.05 | 81 | 1010.8 |
| 20260509132041 | 13 | 147 | 8.0 | 12.9 | 0.00 | 0.03 | 0.03 | 80 | 1010.7 |
| 20260509131535 | 13 | 131 | 6.4 | 8.0 | 0.00 | 0.03 | 0.03 | 80 | 1010.7 |
| 20260509131026 | 13 | 133 | 4.8 | 8.0 | 0.00 | 0.03 | 0.03 | 78 | 1010.6 |
| 20260509130539 | 13 | 161 | 4.8 | 8.0 | 0.00 | 0.03 | 0.03 | 78 | 1010.7 |
| 20260509130035 | 12 | 135 | 1.6 | 4.8 | 0.00 | 0.03 | 0.03 | 79 | 1010.6 |
| 20260509125555 | 12 | 135 | 3.2 | 6.4 | 0.00 | 0.03 | 0.03 | 79 | 1010.6 |
| 20260509125030 | 12 | 135 | 3.2 | 6.4 | 0.00 | 0.03 | 0.03 | 81 | 1010.6 |
| 20260509124548 | 12 | 135 | 3.2 | 6.4 | 0.00 | 0.03 | 0.03 | 82 | 1010.7 |
| 20260509124041 | 12 | 135 | 3.2 | 4.8 | 0.00 | 0.03 | 0.03 | 81 | 1010.7 |
| 20260509123532 | 12 | 160 | 3.2 | 8.0 | 0.03 | 0.03 | 0.03 | 81 | 1010.8 |
| 20260509123025 | 12 | 178 | 4.8 | 11.3 | 0.03 | 0.03 | 0.03 | 81 | 1010.8 |
| 20260509122543 | 12 | 176 | 8.0 | 11.3 | 0.03 | 0.03 | 0.03 | 82 | 1010.9 |
| 20260509122037 | 12 | 161 | 6.4 | 8.0 | 0.03 | 0.03 | 0.03 | 82 | 1010.9 |
| 20260509121531 | 12 | 172 | 3.2 | 4.8 | 0.03 | 0.03 | 0.03 | 82 | 1010.8 |
| 20260509121026 | 11 | 172 | 1.6 | 6.4 | 0.03 | 0.03 | 0.03 | 82 | 1010.9 |
| 20260509120543 | 11 | 172 | 3.2 | 11.3 | 0.03 | 0.03 | 0.03 | 83 | 1010.8 |
| 20260509120104 | 11 | 156 | 6.4 | 11.3 | 0.03 | 0.03 | 0.03 | 83 | 1010.9 |
| 20260509115601 | 11 | 161 | 8.0 | 9.7 | 0.03 | 0.03 | 0.03 | 83 | 1011.0 |
| 20260509115042 | 11 | 355 | 1.6 | 4.8 | 0.03 | 0.03 | 0.03 | 83 | 1010.8 |
| 20260509114541 | 11 | 355 | 1.6 | 4.8 | 0.03 | 0.03 | 0.03 | 82 | 1010.6 |
| 20260509114041 | 11 | 63 | 1.6 | 3.2 | 0.03 | 0.03 | 0.03 | 82 | 1010.6 |
| 20260509113537 | 11 | 121 | 0.0 | 3.2 | 0.00 | 0.00 | 0.00 | 82 | 1010.7 |
| 20260509113032 | 11 | 121 | 1.6 | 3.2 | 0.00 | 0.00 | 0.00 | 80 | 1010.8 |
| 20260509112548 | 11 | 121 | 3.2 | 6.4 | 0.00 | 0.00 | 0.00 | 79 | 1010.8 |
| 20260509112043 | 11 | 121 | 3.2 | 6.4 | 0.00 | 0.00 | 0.00 | 79 | 1010.8 |
| 20260509111539 | 11 | 121 | 0.0 | 4.8 | 0.00 | 0.00 | 0.00 | 79 | 1010.8 |
| 20260509111101 | 11 | 36 | 0.0 | 3.2 | 0.00 | 0.00 | 0.00 | 80 | 1010.6 |
| 20260509110531 | 11 | 36 | 0.0 | 8.0 | 0.00 | 0.00 | 0.00 | 79 | 1010.6 |
| 20260509110027 | 11 | 58 | 4.8 | 8.0 | 0.00 | 0.00 | 0.00 | 79 | 1010.3 |
| 20260509105539 | 11 | 307 | 0.0 | 4.8 | 0.00 | 0.00 | 0.00 | 79 | 1010.4 |
| 20260509105033 | 11 | 307 | 0.0 | 3.2 | 0.00 | 0.00 | 0.00 | 78 | 1010.3 |
| 20260509104528 | 11 | 307 | 1.6 | 3.2 | 0.00 | 0.00 | 0.00 | 77 | 1010.4 |
| 20260509104028 | 11 | 307 | 0.0 | 3.2 | 0.00 | 0.00 | 0.00 | 77 | 1010.2 |
| 20260509103544 | 11 | 307 | 0.0 | 3.2 | 0.00 | 0.00 | 0.00 | 78 | 1010.1 |
| 20260509103038 | 11 | 307 | 0.0 | 3.2 | 0.00 | 0.00 | 0.00 | 76 | 1010.2 |
| 20260509102531 | 11 | 307 | 1.6 | 3.2 | 0.00 | 0.00 | 0.00 | 76 | 1010.1 |
| 20260509102028 | 11 | 307 | 1.6 | 6.4 | 0.00 | 0.00 | 0.00 | 75 | 1010.0 |
| 20260509101543 | 11 | 307 | 3.2 | 6.4 | 0.00 | 0.00 | 0.00 | 75 | 1010.0 |
| 20260509101043 | 11 | 345 | 3.2 | 4.8 | 0.00 | 0.00 | 0.00 | 75 | 1009.8 |
| 20260509100540 | 11 | 345 | 1.6 | 3.2 | 0.00 | 0.00 | 0.00 | 75 | 1009.7 |
| 20260509100035 | 11 | 345 | 0.0 | 0.0 | 0.00 | 0.00 | 0.00 | 75 | 1009.7 |
| 20260509095534 | 11 | 345 | 0.0 | 3.2 | 0.00 | 0.00 | 0.00 | 74 | 1009.5 |
| 20260509095052 | 11 | 345 | 1.6 | 3.2 | 0.00 | 0.00 | 0.00 | 74 | 1009.6 |
| 20260509094526 | 11 | 345 | 0.0 | 3.2 | 0.00 | 0.00 | 0.00 | 74 | 1009.7 |
| 20260509094106 | 11 | 345 | 0.0 | 3.2 | 0.00 | 0.00 | 0.00 | 74 | 1009.6 |
| 20260509093542 | 11 | 345 | 0.0 | 3.2 | 0.00 | 0.00 | 0.00 | 74 | 1009.5 |
| 20260509093041 | 11 | 345 | 1.6 | 6.4 | 0.00 | 0.00 | 0.00 | 73 | 1009.6 |
| 20260509092538 | 11 | 333 | 3.2 | 6.4 | 0.00 | 0.00 | 0.00 | 73 | 1009.7 |
| 20260509092034 | 11 | 338 | 0.0 | 6.4 | 0.00 | 0.00 | 0.00 | 73 | 1009.6 |
| 20260509091551 | 11 | 338 | 1.6 | 6.4 | 0.00 | 0.00 | 0.00 | 73 | 1009.6 |
| 20260509091026 | 11 | 323 | 4.8 | 6.4 | 0.00 | 0.00 | 0.00 | 73 | 1009.8 |
| 20260509090543 | 11 | 323 | 4.8 | 6.4 | 0.00 | 0.00 | 0.00 | 73 | 1009.7 |
| 20260509090044 | 11 | 318 | 3.2 | 6.4 | 0.00 | 0.00 | 0.00 | 73 | 1009.6 |
| 20260509085538 | 11 | 312 | 4.8 | 6.4 | 0.00 | 0.00 | 0.00 | 73 | 1009.7 |
| 20260509085032 | 11 | 310 | 0.0 | 0.0 | 0.00 | 0.00 | 0.00 | 74 | 1009.6 |
| 20260509084548 | 11 | 309 | 0.0 | 0.0 | 0.00 | 0.00 | 0.00 | 74 | 1009.7 |
| 20260509084045 | 11 | 310 | 0.0 | 0.0 | 0.00 | 0.00 | 0.00 | 73 | 1009.7 |
| 20260509083538 | 12 | 310 | 0.0 | 0.0 | 0.00 | 0.00 | 0.00 | 73 | 1009.7 |
| 20260509083057 | 12 | 310 | 0.0 | 0.0 | 0.00 | 0.00 | 0.00 | 73 | 1009.6 |
| 20260509082530 | 12 | 310 | 0.0 | 0.0 | 0.00 | 0.00 | 0.00 | 73 | 1009.8 |
| 20260509082051 | 12 | 310 | 0.0 | 3.2 | 0.00 | 0.00 | 0.00 | 73 | 1009.9 |
| 20260509081548 | 12 | 310 | 0.0 | 3.2 | 0.00 | 0.00 | 0.00 | 73 | 1009.9 |
| 20260509081047 | 12 | 310 | 3.2 | 4.8 | 0.00 | 0.00 | 0.00 | 72 | 1009.9 |
| 20260509080605 | 12 | 310 | 3.2 | 6.4 | 0.00 | 0.00 | 0.00 | 71 | 1009.9 |
| 20260509080037 | 12 | 310 | 3.2 | 6.4 | 0.00 | 0.00 | 0.00 | 72 | 1009.9 |
| 20260509075531 | 12 | 20 | 3.2 | 4.8 | 0.00 | 0.00 | 0.00 | 72 | 1009.9 |
| 20260509075025 | 12 | 57 | 1.6 | 4.8 | 0.00 | 0.00 | 0.00 | 72 | 1009.8 |
| 20260509074536 | 12 | 57 | 0.0 | 1.6 | 0.00 | 0.00 | 0.00 | 72 | 1009.7 |
| 20260509074039 | 12 | 57 | 0.0 | 1.6 | 0.00 | 0.00 | 0.00 | 72 | 1009.7 |
| 20260509073531 | 12 | 57 | 0.0 | 1.6 | 0.00 | 0.00 | 0.00 | 71 | 1009.7 |
| 20260509073027 | 12 | 57 | 0.0 | 3.2 | 0.00 | 0.00 | 0.00 | 71 | 1009.9 |
| 20260509072544 | 12 | 57 | 0.0 | 4.8 | 0.00 | 0.00 | 0.00 | 71 | 1009.9 |
| 20260509072043 | 12 | 57 | 1.6 | 6.4 | 0.00 | 0.00 | 0.00 | 71 | 1009.8 |
| 20260509071541 | 12 | 57 | 1.6 | 8.0 | 0.00 | 0.00 | 0.00 | 70 | 1010.0 |
| 20260509071041 | 12 | 62 | 4.8 | 8.0 | 0.00 | 0.00 | 0.00 | 71 | 1010.0 |
| 20260509070540 | 12 | 55 | 3.2 | 8.0 | 0.00 | 0.00 | 0.00 | 71 | 1010.0 |
| 20260509070039 | 12 | 53 | 4.8 | 8.0 | 0.00 | 0.00 | 0.00 | 70 | 1010.0 |
| 20260509065537 | 12 | 32 | 3.2 | 11.3 | 0.00 | 0.00 | 0.00 | 70 | 1010.1 |
| 20260509065028 | 12 | 59 | 4.8 | 11.3 | 0.00 | 0.00 | 0.00 | 70 | 1010.2 |
| 20260509064547 | 12 | 52 | 4.8 | 9.7 | 0.00 | 0.00 | 0.00 | 70 | 1010.2 |
| 20260509064105 | 12 | 54 | 4.8 | 9.7 | 0.00 | 0.00 | 0.00 | 70 | 1010.2 |
| 20260509063542 | 12 | 32 | 3.2 | 9.7 | 0.00 | 0.00 | 0.00 | 70 | 1010.3 |
| 20260509063102 | 12 | 37 | 4.8 | 9.7 | 0.00 | 0.00 | 0.00 | 70 | 1010.3 |
| 20260509062536 | 12 | 25 | 4.8 | 9.7 | 0.00 | 0.00 | 0.00 | 69 | 1010.3 |
| 20260509062031 | 12 | 5 | 4.8 | 9.7 | 0.00 | 0.00 | 0.00 | 68 | 1010.4 |
| 20260509061524 | 12 | 355 | 4.8 | 8.0 | 0.00 | 0.00 | 0.00 | 68 | 1010.3 |
| 20260509061042 | 12 | 9 | 3.2 | 8.0 | 0.00 | 0.00 | 0.00 | 69 | 1010.4 |
| 20260509060539 | 12 | 340 | 4.8 | 8.0 | 0.00 | 0.00 | 0.00 | 68 | 1010.6 |
| 20260509060034 | 12 | 334 | 4.8 | 6.4 | 0.00 | 0.00 | 0.00 | 68 | 1010.6 |
| 20260509055526 | 12 | 355 | 1.6 | 3.2 | 0.00 | 0.00 | 0.00 | 68 | 1010.5 |
| 20260509055025 | 12 | 355 | 1.6 | 3.2 | 0.00 | 0.00 | 0.00 | 68 | 1010.6 |
| 20260509054600 | 12 | 355 | 0.0 | 3.2 | 0.00 | 0.00 | 0.00 | 67 | 1010.5 |
| 20260509054041 | 12 | 355 | 0.0 | 3.2 | 0.00 | 0.00 | 0.00 | 68 | 1010.5 |
| 20260509053532 | 12 | 355 | 0.0 | 3.2 | 0.00 | 0.00 | 0.00 | 67 | 1010.4 |
| 20260509053027 | 12 | 355 | 1.6 | 3.2 | 0.00 | 0.00 | 0.00 | 67 | 1010.5 |
| 20260509052538 | 13 | 355 | 0.0 | 4.8 | 0.00 | 0.00 | 0.00 | 68 | 1010.6 |
| 20260509052034 | 12 | 355 | 0.0 | 4.8 | 0.00 | 0.00 | 0.00 | 67 | 1010.6 |
| 20260509051526 | 12 | 355 | 1.6 | 6.4 | 0.00 | 0.00 | 0.00 | 67 | 1010.5 |
| 20260509051044 | 12 | 348 | 1.6 | 6.4 | 0.00 | 0.00 | 0.00 | 66 | 1010.5 |
| 20260509050541 | 12 | 355 | 3.2 | 6.4 | 0.00 | 0.00 | 0.00 | 67 | 1010.6 |
| 20260509050038 | 12 | 355 | 3.2 | 6.4 | 0.00 | 0.00 | 0.00 | 68 | 1010.5 |
| 20260509045529 | 12 | 341 | 3.2 | 6.4 | 0.00 | 0.00 | 0.00 | 68 | 1010.6 |
| 20260509045044 | 12 | 331 | 3.2 | 6.4 | 0.00 | 0.00 | 0.00 | 68 | 1010.6 |
| 20260509044532 | 12 | 298 | 3.2 | 6.4 | 0.00 | 0.00 | 0.00 | 68 | 1010.6 |
| 20260509044026 | 13 | 351 | 1.6 | 4.8 | 0.00 | 0.00 | 0.00 | 68 | 1010.7 |
| 20260509043542 | 13 | 128 | 1.6 | 4.8 | 0.00 | 0.00 | 0.00 | 68 | 1010.7 |
| 20260509043037 | 13 | 355 | 1.6 | 4.8 | 0.00 | 0.00 | 0.00 | 68 | 1010.8 |
| 20260509042531 | 13 | 355 | 1.6 | 4.8 | 0.00 | 0.00 | 0.00 | 68 | 1010.8 |
| 20260509042026 | 13 | 355 | 0.0 | 4.8 | 0.00 | 0.00 | 0.00 | 67 | 1010.8 |
| 20260509041603 | 13 | 355 | 0.0 | 0.0 | 0.00 | 0.00 | 0.00 | 67 | 1011.0 |
| 20260509041037 | 13 | 355 | 0.0 | 0.0 | 0.00 | 0.00 | 0.00 | 67 | 1011.0 |
| 20260509040541 | 13 | 355 | 0.0 | 0.0 | 0.00 | 0.00 | 0.00 | 68 | 1011.0 |
| 20260509040035 | 13 | 355 | 0.0 | 4.8 | 0.00 | 0.00 | 0.00 | 67 | 1010.9 |
| 20260509035524 | 13 | 355 | 0.0 | 4.8 | 0.00 | 0.00 | 0.00 | 66 | 1011.0 |
| 20260509035045 | 13 | 355 | 3.2 | 6.4 | 0.00 | 0.00 | 0.00 | 66 | 1011.1 |
| 20260509034538 | 13 | 330 | 3.2 | 6.4 | 0.00 | 0.00 | 0.00 | 66 | 1011.0 |
| 20260509034038 | 13 | 69 | 1.6 | 3.2 | 0.00 | 0.00 | 0.00 | 66 | 1010.9 |
| 20260509033556 | 13 | 68 | 0.0 | 3.2 | 0.00 | 0.00 | 0.00 | 66 | 1011.0 |
| 20260509033054 | 13 | 68 | 1.6 | 4.8 | 0.00 | 0.00 | 0.00 | 66 | 1010.9 |
| 20260509032526 | 13 | 68 | 3.2 | 4.8 | 0.00 | 0.00 | 0.00 | 66 | 1011.0 |
| 20260509032043 | 13 | 68 | 3.2 | 4.8 | 0.00 | 0.00 | 0.00 | 65 | 1011.0 |
| 20260509031541 | 13 | 68 | 3.2 | 4.8 | 0.00 | 0.00 | 0.00 | 63 | 1011.1 |
| 20260509031042 | 13 | 68 | 0.0 | 1.6 | 0.00 | 0.00 | 0.00 | 64 | 1011.2 |
| 20260509030540 | 13 | 68 | 0.0 | 1.6 | 0.00 | 0.00 | 0.00 | 64 | 1011.4 |
| 20260509030034 | 13 | 68 | 0.0 | 3.2 | 0.00 | 0.00 | 0.00 | 63 | 1011.4 |
| 20260509025525 | 13 | 68 | 0.0 | 4.8 | 0.00 | 0.00 | 0.00 | 62 | 1011.6 |
| 20260509025044 | 13 | 124 | 3.2 | 4.8 | 0.00 | 0.00 | 0.00 | 62 | 1011.4 |
| 20260509024600 | 14 | 124 | 0.0 | 3.2 | 0.00 | 0.00 | 0.00 | 63 | 1011.6 |
| 20260509024058 | 14 | 124 | 0.0 | 3.2 | 0.00 | 0.00 | 0.00 | 62 | 1011.3 |
| 20260509023528 | 14 | 124 | 1.6 | 3.2 | 0.00 | 0.00 | 0.00 | 61 | 1011.3 |
| 20260509023102 | 14 | 124 | 1.6 | 3.2 | 0.00 | 0.00 | 0.00 | 60 | 1011.3 |
| 20260509022554 | 14 | 124 | 0.0 | 3.2 | 0.00 | 0.00 | 0.00 | 60 | 1011.4 |
| 20260509022026 | 14 | 124 | 0.0 | 4.8 | 0.00 | 0.00 | 0.00 | 59 | 1011.6 |
| 20260509021532 | 14 | 124 | 0.0 | 8.0 | 0.00 | 0.00 | 0.00 | 59 | 1011.4 |
| 20260509021024 | 14 | 123 | 4.8 | 11.3 | 0.00 | 0.00 | 0.00 | 59 | 1011.5 |
| 20260509020041 | 14 | 129 | 6.4 | 16.1 | 0.00 | 0.00 | 0.00 | 60 | 1011.5 |
| 20260509015535 | 14 | 145 | 8.0 | 16.1 | 0.00 | 0.00 | 0.00 | 60 | 1011.4 |
| 20260509015031 | 14 | 149 | 9.7 | 12.9 | 0.00 | 0.00 | 0.00 | 59 | 1011.2 |
| 20260509014544 | 14 | 132 | 4.8 | 12.9 | 0.00 | 0.00 | 0.00 | 60 | 1011.1 |
| 20260509014041 | 14 | 136 | 6.4 | 12.9 | 0.00 | 0.00 | 0.00 | 59 | 1011.2 |
| 20260509013540 | 14 | 134 | 4.8 | 8.0 | 0.00 | 0.00 | 0.00 | 59 | 1011.2 |
| 20260509013034 | 15 | 134 | 3.2 | 4.8 | 0.00 | 0.00 | 0.00 | 59 | 1011.1 |
| 20260509012527 | 15 | 125 | 0.0 | 16.1 | 0.00 | 0.00 | 0.00 | 59 | 1011.1 |
| 20260509012044 | 15 | 125 | 3.2 | 16.1 | 0.00 | 0.00 | 0.00 | 58 | 1011.1 |
| 20260509011602 | 15 | 146 | 6.4 | 11.3 | 0.00 | 0.00 | 0.00 | 60 | 1011.2 |
| 20260509011035 | 15 | 24 | 3.2 | 4.8 | 0.00 | 0.00 | 0.00 | 58 | 1011.0 |
| 20260509010525 | 15 | 24 | 3.2 | 4.8 | 0.00 | 0.00 | 0.00 | 56 | 1010.9 |
| 20260509010043 | 15 | 298 | 1.6 | 4.8 | 0.00 | 0.00 | 0.00 | 55 | 1011.1 |
| 20260509005600 | 15 | 298 | 0.0 | 1.6 | 0.00 | 0.00 | 0.00 | 55 | 1011.0 |
| 20260509005032 | 15 | 298 | 0.0 | 3.2 | 0.00 | 0.00 | 0.00 | 57 | 1010.9 |
| 20260509004525 | 15 | 298 | 0.0 | 3.2 | 0.00 | 0.00 | 0.00 | 55 | 1010.9 |
| 20260509004104 | 15 | 298 | 1.6 | 3.2 | 0.00 | 0.00 | 0.00 | 54 | 1011.0 |
| 20260509003540 | 15 | 298 | 1.6 | 3.2 | 0.00 | 0.00 | 0.00 | 53 | 1011.0 |
| 20260509003030 | 15 | 298 | 0.0 | 1.6 | 0.00 | 0.00 | 0.00 | 52 | 1011.0 |
| 20260509002603 | 16 | 298 | 0.0 | 1.6 | 0.00 | 0.00 | 0.00 | 54 | 1011.1 |
| 20260509002043 | 16 | 298 | 0.0 | 3.2 | 0.00 | 0.00 | 0.00 | 51 | 1011.0 |
| 20260509001538 | 16 | 298 | 1.6 | 3.2 | 0.00 | 0.00 | 0.00 | 52 | 1011.0 |
| 20260509001039 | 16 | 298 | 0.0 | 1.6 | 0.00 | 0.00 | 0.00 | 51 | 1011.0 |
| 20260509000531 | 16 | 298 | 0.0 | 4.8 | 0.00 | 0.00 | 0.00 | 51 | 1010.9 |
| 20260509000026 | 16 | 298 | 1.6 | 4.8 | 0.00 | 0.00 | 0.00 | 51 | 1011.0 |
| 20260508235536 | 16 | 295 | 0.0 | 4.8 | 0.00 | 0.00 | 0.00 | 50 | 1010.9 |
| 20260508235052 | 17 | 295 | 1.6 | 6.4 | 0.00 | 0.00 | 0.00 | 48 | 1010.9 |
| 20260508234524 | 17 | 290 | 3.2 | 6.4 | 0.00 | 0.00 | 0.00 | 46 | 1011.0 |
| 20260508234038 | 17 | 283 | 3.2 | 6.4 | 0.00 | 0.00 | 0.00 | 45 | 1010.9 |